Back to Top

Language: 

My Weather Underground Personal Weather Station Historical Data with Graphs...

Delerius Weather Station Historical Data
Daily Summary for March 15, 2017 Units:  English    Metric   Both
« Previous Day
Next Day »
Daily Weekly Monthly Yearly Custom
  High: Low: Average:
Temperature: 61.7 °F 45.7 °F 52.7 °F
Dew Point: 46.1 °F 39.1 °F 42.5 °F
Humidity: 84 % 51 % 69 %
Wind Speed: 10.0 mph 0.0 mph 4.5 mph
Wind Gust: 20.0 mph - -
Wind:- - West
Pressure: 30.49 in 30.29 in -
Precipitation: 0.00 in    
Historical Graphs
 
 
Tabular Data for March 15, 2017
Time Temperature Dew Point Pressure Wind Wind Speed Wind Gust Humidity Rainfall Rate (Hourly) solar Conditions
00:04 50.0 °F 42.7 °F 30.45 in West 9.0 mph 16.0 mph 76 % 0.00 in 0 W/m2
00:09 49.8 °F 42.6 °F 30.46 in West 9.0 mph 16.0 mph 76 % 0.00 in 0 W/m2
00:14 49.8 °F 42.2 °F 30.45 in West 9.0 mph 14.0 mph 75 % 0.00 in 0 W/m2
00:19 49.8 °F 42.2 °F 30.45 in West 8.0 mph 14.0 mph 75 % 0.00 in 0 W/m2
00:24 49.8 °F 41.9 °F 30.46 in WNW 7.0 mph 12.0 mph 74 % 0.00 in 0 W/m2
00:29 49.8 °F 41.9 °F 30.46 in WNW 7.0 mph 12.0 mph 74 % 0.00 in 0 W/m2
00:34 49.6 °F 41.3 °F 30.46 in WNW 8.0 mph 13.0 mph 73 % 0.00 in 0 W/m2
00:39 49.6 °F 41.3 °F 30.46 in WNW 9.0 mph 13.0 mph 73 % 0.00 in 0 W/m2
00:44 49.6 °F 41.3 °F 30.46 in WNW 9.0 mph 13.0 mph 73 % 0.00 in 0 W/m2
00:49 49.6 °F 41.3 °F 30.46 in WNW 9.0 mph 16.0 mph 73 % 0.00 in 0 W/m2
00:54 49.6 °F 41.3 °F 30.46 in WNW 10.0 mph 18.0 mph 73 % 0.00 in 0 W/m2
00:59 49.6 °F 41.3 °F 30.46 in WNW 10.0 mph 20.0 mph 73 % 0.00 in 0 W/m2
01:04 49.6 °F 41.7 °F 30.46 in WNW 9.0 mph 20.0 mph 74 % 0.00 in 0 W/m2
01:09 49.6 °F 41.7 °F 30.47 in WNW 8.0 mph 15.0 mph 74 % 0.00 in 0 W/m2
01:14 49.5 °F 41.5 °F 30.46 in WNW 8.0 mph 15.0 mph 74 % 0.00 in 0 W/m2
01:19 49.5 °F 41.5 °F 30.46 in WNW 8.0 mph 16.0 mph 74 % 0.00 in 0 W/m2
01:24 49.3 °F 41.3 °F 30.47 in WNW 9.0 mph 18.0 mph 74 % 0.00 in 0 W/m2
01:29 49.3 °F 41.3 °F 30.47 in WNW 8.0 mph 18.0 mph 74 % 0.00 in 0 W/m2
01:34 49.1 °F 40.8 °F 30.46 in WNW 7.0 mph 12.0 mph 73 % 0.00 in 0 W/m2
01:39 49.1 °F 40.8 °F 30.47 in WNW 9.0 mph 18.0 mph 73 % 0.00 in 0 W/m2
01:44 49.1 °F 40.8 °F 30.47 in WNW 8.0 mph 18.0 mph 73 % 0.00 in 0 W/m2
01:49 48.9 °F 40.6 °F 30.46 in WNW 6.0 mph 14.0 mph 73 % 0.00 in 0 W/m2
01:59 48.7 °F 40.1 °F 30.46 in WNW 6.0 mph 11.0 mph 72 % 0.00 in 0 W/m2
02:04 48.7 °F 40.1 °F 30.46 in WNW 6.0 mph 10.0 mph 72 % 0.00 in 0 W/m2
02:15 48.6 °F 39.9 °F 30.46 in WNW 4.0 mph 9.0 mph 72 % 0.00 in 0 W/m2
02:20 48.6 °F 39.9 °F 30.46 in WNW 4.0 mph 10.0 mph 72 % 0.00 in 0 W/m2
02:25 48.4 °F 39.8 °F 30.46 in WNW 2.0 mph 10.0 mph 72 % 0.00 in 0 W/m2
02:30 48.4 °F 39.8 °F 30.46 in WNW 3.0 mph 8.0 mph 72 % 0.00 in 0 W/m2
02:35 48.4 °F 39.8 °F 30.46 in WNW 5.0 mph 12.0 mph 72 % 0.00 in 0 W/m2
02:40 48.4 °F 39.8 °F 30.46 in WNW 5.0 mph 12.0 mph 72 % 0.00 in 0 W/m2
02:45 48.2 °F 39.9 °F 30.46 in NW 3.0 mph 12.0 mph 73 % 0.00 in 0 W/m2
02:50 48.0 °F 39.8 °F 30.46 in NW 1.0 mph 4.0 mph 73 % 0.00 in 0 W/m2
02:55 48.0 °F 39.8 °F 30.46 in Calm   2.0 mph 73 % 0.00 in 0 W/m2
03:00 47.8 °F 40.0 °F 30.46 in NW 1.0 mph 6.0 mph 74 % 0.00 in 0 W/m2
03:05 47.7 °F 39.8 °F 30.46 in NW 2.0 mph 8.0 mph 74 % 0.00 in 0 W/m2
03:10 47.7 °F 39.8 °F 30.46 in NW 2.0 mph 8.0 mph 74 % 0.00 in 0 W/m2
03:20 47.3 °F 39.8 °F 30.47 in NW 1.0 mph 5.0 mph 75 % 0.00 in 0 W/m2
03:25 47.1 °F 39.6 °F 30.47 in NW 1.0 mph 5.0 mph 75 % 0.00 in 0 W/m2
03:30 46.9 °F 39.4 °F 30.47 in NW 1.0 mph 4.0 mph 75 % 0.00 in 0 W/m2
03:31 46.9 °F 39.4 °F 30.47 in NW 1.0 mph 4.0 mph 75 % 0.00 in 0 W/m2
03:36 46.9 °F 39.8 °F 30.47 in NW 1.0 mph 4.0 mph 76 % 0.00 in 0 W/m2
03:41 46.8 °F 39.6 °F 30.47 in NNW 1.0 mph 6.0 mph 76 % 0.00 in 0 W/m2
03:46 46.6 °F 39.4 °F 30.47 in NNW 1.0 mph 6.0 mph 76 % 0.00 in 0 W/m2
03:51 46.6 °F 39.4 °F 30.47 in Calm   2.0 mph 76 % 0.00 in 0 W/m2
03:56 46.4 °F 39.2 °F 30.47 in NW 1.0 mph 7.0 mph 76 % 0.00 in 0 W/m2
04:01 46.2 °F 39.1 °F 30.47 in NW 2.0 mph 7.0 mph 76 % 0.00 in 0 W/m2
04:06 46.2 °F 39.1 °F 30.47 in WNW 1.0 mph 4.0 mph 76 % 0.00 in 0 W/m2
04:11 46.0 °F 39.2 °F 30.47 in WNW 1.0 mph 5.0 mph 77 % 0.00 in 0 W/m2
04:16 45.9 °F 39.1 °F 30.47 in Calm   5.0 mph 77 % 0.00 in 0 W/m2
04:21 45.7 °F 39.2 °F 30.47 in WNW 1.0 mph 7.0 mph 78 % 0.00 in 0 W/m2
04:26 45.7 °F 39.2 °F 30.47 in WNW 2.0 mph 8.0 mph 78 % 0.00 in 0 W/m2
04:31 45.9 °F 39.4 °F 30.47 in WNW 3.0 mph 8.0 mph 78 % 0.00 in 0 W/m2
04:36 45.9 °F 39.4 °F 30.47 in West 4.0 mph 6.0 mph 78 % 0.00 in 0 W/m2
04:41 45.9 °F 39.4 °F 30.47 in West 4.0 mph 7.0 mph 78 % 0.00 in 0 W/m2
04:46 45.7 °F 39.2 °F 30.47 in WNW 5.0 mph 8.0 mph 78 % 0.00 in 0 W/m2
04:51 45.7 °F 39.2 °F 30.47 in WNW 6.0 mph 8.0 mph 78 % 0.00 in 0 W/m2
04:56 45.7 °F 39.2 °F 30.47 in WNW 7.0 mph 9.0 mph 78 % 0.00 in 0 W/m2
05:02 45.7 °F 39.2 °F 30.47 in WNW 7.0 mph 10.0 mph 78 % 0.00 in 0 W/m2
05:07 45.7 °F 39.2 °F 30.47 in NW 7.0 mph 11.0 mph 78 % 0.00 in 0 W/m2
05:12 45.7 °F 39.2 °F 30.47 in NW 7.0 mph 11.0 mph 78 % 0.00 in 0 W/m2
05:17 45.9 °F 39.4 °F 30.47 in WNW 7.0 mph 11.0 mph 78 % 0.00 in 0 W/m2
05:22 45.9 °F 39.4 °F 30.47 in WNW 7.0 mph 11.0 mph 78 % 0.00 in 0 W/m2
05:27 46.0 °F 39.2 °F 30.47 in WNW 7.0 mph 12.0 mph 77 % 0.00 in 0 W/m2
05:32 46.0 °F 39.2 °F 30.47 in West 6.0 mph 12.0 mph 77 % 0.00 in 0 W/m2
05:42 46.0 °F 39.2 °F 30.47 in SW 4.0 mph 7.0 mph 77 % 0.00 in 0 W/m2
05:47 46.0 °F 39.2 °F 30.47 in SW 3.0 mph 7.0 mph 77 % 0.00 in 0 W/m2
05:52 46.2 °F 39.4 °F 30.47 in SSW 4.0 mph 8.0 mph 77 % 0.00 in 0 W/m2
05:57 46.4 °F 39.2 °F 30.47 in SW 5.0 mph 10.0 mph 76 % 0.00 in 0 W/m2
06:02 46.4 °F 39.6 °F 30.47 in SW 5.0 mph 10.0 mph 77 % 0.00 in 0 W/m2
06:07 46.6 °F 39.8 °F 30.48 in WSW 4.0 mph 9.0 mph 77 % 0.00 in 0 W/m2
06:12 46.4 °F 39.6 °F 30.47 in West 4.0 mph 9.0 mph 77 % 0.00 in 0 W/m2
06:17 46.4 °F 39.6 °F 30.48 in West 4.0 mph 9.0 mph 77 % 0.00 in 0 W/m2
06:22 46.4 °F 39.6 °F 30.48 in West 3.0 mph 8.0 mph 77 % 0.00 in 0 W/m2
06:27 46.2 °F 39.4 °F 30.48 in West 1.0 mph 6.0 mph 77 % 0.00 in 0 W/m2
06:32 46.2 °F 39.7 °F 30.48 in WSW 1.0 mph 6.0 mph 78 % 0.00 in 5 W/m2
06:37 46.2 °F 39.7 °F 30.48 in SW 1.0 mph 6.0 mph 78 % 0.00 in 7 W/m2
06:42 46.2 °F 39.7 °F 30.48 in SW 2.0 mph 5.0 mph 78 % 0.00 in 11 W/m2
06:47 46.0 °F 39.6 °F 30.48 in WSW 2.0 mph 5.0 mph 78 % 0.00 in 14 W/m2
06:52 46.0 °F 39.9 °F 30.49 in West 3.0 mph 6.0 mph 79 % 0.00 in 18 W/m2
06:58 46.0 °F 39.9 °F 30.49 in West 3.0 mph 6.0 mph 79 % 0.00 in 23 W/m2
07:03 46.0 °F 39.9 °F 30.49 in West 3.0 mph 6.0 mph 79 % 0.00 in 26 W/m2
07:08 46.0 °F 39.9 °F 30.49 in West 1.0 mph 5.0 mph 79 % 0.00 in 35 W/m2
07:13 46.0 °F 40.2 °F 30.49 in Calm   2.0 mph 80 % 0.00 in 39 W/m2
07:18 46.0 °F 40.2 °F 30.49 in Calm   4.0 mph 80 % 0.00 in 42 W/m2
07:23 46.2 °F 40.4 °F 30.49 in South 1.0 mph 4.0 mph 80 % 0.00 in 51 W/m2
07:28 46.2 °F 40.4 °F 30.49 in Calm   1.0 mph 80 % 0.00 in 65 W/m2
07:33 46.2 °F 40.4 °F 30.49 in Calm   2.0 mph 80 % 0.00 in 76 W/m2
07:38 46.4 °F 40.6 °F 30.49 in Calm   2.0 mph 80 % 0.00 in 91 W/m2
07:43 46.6 °F 40.7 °F 30.49 in Calm   2.0 mph 80 % 0.00 in 120 W/m2
07:48 46.6 °F 40.7 °F 30.49 in Calm   3.0 mph 80 % 0.00 in 128 W/m2
07:53 46.9 °F 41.1 °F 30.49 in ENE 1.0 mph 6.0 mph 80 % 0.00 in 137 W/m2
07:58 47.1 °F 41.3 °F 30.49 in WSW 3.0 mph 6.0 mph 80 % 0.00 in 118 W/m2
08:03 47.5 °F 41.3 °F 30.49 in WSW 3.0 mph 6.0 mph 79 % 0.00 in 111 W/m2
08:08 47.7 °F 41.5 °F 30.49 in WSW 2.0 mph 5.0 mph 79 % 0.00 in 162 W/m2
08:13 47.8 °F 41.3 °F 30.49 in WSW 1.0 mph 5.0 mph 78 % 0.00 in 295 W/m2
08:18 48.4 °F 41.8 °F 30.48 in SW 3.0 mph 6.0 mph 78 % 0.00 in 294 W/m2
08:23 48.9 °F 41.0 °F 30.48 in SW 4.0 mph 10.0 mph 74 % 0.00 in 281 W/m2
08:28 49.5 °F 40.8 °F 30.48 in SW 5.0 mph 10.0 mph 72 % 0.00 in 169 W/m2
08:33 49.6 °F 40.6 °F 30.49 in SW 4.0 mph 8.0 mph 71 % 0.00 in 160 W/m2
08:38 50.0 °F 41.0 °F 30.49 in SSW 2.0 mph 7.0 mph 71 % 0.00 in 167 W/m2
08:43 50.2 °F 40.4 °F 30.49 in South 1.0 mph 4.0 mph 69 % 0.00 in 202 W/m2
08:48 50.4 °F 40.6 °F 30.49 in SW 2.0 mph 6.0 mph 69 % 0.00 in 199 W/m2
08:53 50.5 °F 40.4 °F 30.49 in WSW 3.0 mph 7.0 mph 68 % 0.00 in 144 W/m2
08:58 50.5 °F 40.7 °F 30.49 in WSW 3.0 mph 7.0 mph 69 % 0.00 in 190 W/m2
09:03 50.9 °F 41.1 °F 30.49 in WSW 2.0 mph 6.0 mph 69 % 0.00 in 408 W/m2
09:08 51.4 °F 41.2 °F 30.49 in West 2.0 mph 6.0 mph 68 % 0.00 in 417 W/m2
09:13 52.2 °F 41.5 °F 30.49 in West 2.0 mph 5.0 mph 67 % 0.00 in 476 W/m2
09:18 52.7 °F 41.7 °F 30.48 in WSW 3.0 mph 6.0 mph 66 % 0.00 in 543 W/m2
09:23 53.1 °F 41.6 °F 30.49 in SW 3.0 mph 6.0 mph 65 % 0.00 in 366 W/m2
09:28 53.2 °F 41.4 °F 30.49 in SSW 2.0 mph 5.0 mph 64 % 0.00 in 179 W/m2
09:33 53.2 °F 41.0 °F 30.49 in SSW 1.0 mph 5.0 mph 63 % 0.00 in 239 W/m2
09:38 53.2 °F 41.4 °F 30.49 in SSW 1.0 mph 5.0 mph 64 % 0.00 in 413 W/m2
09:43 53.2 °F 41.4 °F 30.49 in SSW 3.0 mph 6.0 mph 64 % 0.00 in 227 W/m2
09:48 53.1 °F 41.2 °F 30.49 in SSW 3.0 mph 6.0 mph 64 % 0.00 in 236 W/m2
09:53 52.9 °F 41.4 °F 30.49 in South 3.0 mph 6.0 mph 65 % 0.00 in 220 W/m2
09:58 52.9 °F 41.4 °F 30.49 in South 2.0 mph 6.0 mph 65 % 0.00 in 207 W/m2
10:03 53.1 °F 41.6 °F 30.49 in South 1.0 mph 4.0 mph 65 % 0.00 in 251 W/m2
10:08 53.2 °F 41.8 °F 30.49 in South 1.0 mph 4.0 mph 65 % 0.00 in 197 W/m2
10:13 53.4 °F 41.5 °F 30.49 in SSE 1.0 mph 5.0 mph 64 % 0.00 in 225 W/m2
10:18 53.6 °F 42.1 °F 30.49 in South 1.0 mph 5.0 mph 65 % 0.00 in 424 W/m2
10:23 54.1 °F 42.2 °F 30.49 in WSW 2.0 mph 6.0 mph 64 % 0.00 in 543 W/m2
10:28 54.9 °F 42.5 °F 30.48 in WNW 3.0 mph 7.0 mph 63 % 0.00 in 501 W/m2
10:33 55.6 °F 43.2 °F 30.49 in WSW 4.0 mph 10.0 mph 63 % 0.00 in 501 W/m2
10:38 55.6 °F 42.8 °F 30.48 in South 4.0 mph 10.0 mph 62 % 0.00 in 510 W/m2
10:43 55.8 °F 42.1 °F 30.48 in SW 3.0 mph 7.0 mph 60 % 0.00 in 563 W/m2
10:49 55.9 °F 41.8 °F 30.48 in West 4.0 mph 11.0 mph 59 % 0.00 in 561 W/m2
10:54 56.5 °F 43.2 °F 30.48 in West 5.0 mph 11.0 mph 61 % 0.00 in 580 W/m2
10:59 57.2 °F 43.0 °F 30.48 in WNW 6.0 mph 12.0 mph 59 % 0.00 in 564 W/m2
11:03 57.6 °F 42.4 °F 30.48 in WNW 7.0 mph 12.0 mph 57 % 0.00 in 559 W/m2
11:09 57.6 °F 42.9 °F 30.48 in WNW 7.0 mph 13.0 mph 58 % 0.00 in 564 W/m2
11:14 57.7 °F 42.6 °F 30.48 in WNW 7.0 mph 13.0 mph 57 % 0.00 in 561 W/m2
11:19 57.7 °F 41.7 °F 30.48 in West 8.0 mph 13.0 mph 55 % 0.00 in 585 W/m2
11:24 57.9 °F 42.8 °F 30.48 in West 8.0 mph 13.0 mph 57 % 0.00 in 610 W/m2
11:29 58.3 °F 42.2 °F 30.48 in WNW 6.0 mph 11.0 mph 55 % 0.00 in 596 W/m2
11:34 58.5 °F 42.8 °F 30.48 in WNW 7.0 mph 15.0 mph 56 % 0.00 in 605 W/m2
11:39 58.6 °F 43.0 °F 30.47 in WNW 8.0 mph 15.0 mph 56 % 0.00 in 643 W/m2
11:43 58.7 °F 42.1 °F 30.47 in WNW 7.0 mph -999.0 mph 54 % 0.00 in 634 W/m2
11:44 59.2 °F 43.0 °F 30.47 in WNW 7.0 mph 12.0 mph 55 % 0.00 in 666 W/m2
11:48 58.7 °F 42.1 °F 30.47 in WNW 7.0 mph -999.0 mph 54 % 0.00 in 634 W/m2
11:49 59.2 °F 42.0 °F 30.47 in WNW 7.0 mph 12.0 mph 53 % 0.00 in 628 W/m2
11:53 59.4 °F 41.3 °F 30.46 in West 8.0 mph -999.0 mph 51 % 0.00 in 640 W/m2
11:54 59.4 °F 42.7 °F 30.47 in West 8.0 mph 12.0 mph 54 % 0.00 in 643 W/m2
11:58 59.4 °F 41.3 °F 30.46 in West 8.0 mph -999.0 mph 51 % 0.00 in 640 W/m2
11:59 59.5 °F 41.4 °F 30.47 in West 8.0 mph 15.0 mph 51 % 0.00 in 638 W/m2
12:03 59.4 °F 41.3 °F 30.46 in West 8.0 mph -999.0 mph 51 % 0.00 in 640 W/m2
12:04 59.5 °F 41.4 °F 30.46 in West 8.0 mph 15.0 mph 51 % 0.00 in 619 W/m2
12:08 59.8 °F 42.1 °F 30.46 in WNW 9.0 mph -999.0 mph 52 % 0.00 in 622 W/m2
12:13 59.8 °F 42.1 °F 30.46 in WNW 9.0 mph -999.0 mph 52 % 0.00 in 622 W/m2
12:18 59.8 °F 42.1 °F 30.46 in WNW 9.0 mph -999.0 mph 52 % 0.00 in 622 W/m2
12:23 60.2 °F 42.5 °F 30.45 in WNW 10.0 mph -999.0 mph 52 % 0.00 in 641 W/m2
12:28 60.2 °F 42.5 °F 30.45 in WNW 10.0 mph -999.0 mph 52 % 0.00 in 641 W/m2
12:33 60.2 °F 42.5 °F 30.45 in WNW 10.0 mph -999.0 mph 52 % 0.00 in 641 W/m2
12:38 60.4 °F 42.7 °F 30.44 in WNW 10.0 mph -999.0 mph 52 % 0.00 in 608 W/m2
12:43 60.4 °F 42.7 °F 30.44 in WNW 10.0 mph -999.0 mph 52 % 0.00 in 608 W/m2
12:48 60.4 °F 42.7 °F 30.44 in WNW 10.0 mph -999.0 mph 52 % 0.00 in 608 W/m2
12:53 60.4 °F 43.2 °F 30.44 in WNW 9.0 mph -999.0 mph 53 % 0.00 in 600 W/m2
12:58 60.4 °F 43.2 °F 30.44 in WNW 9.0 mph -999.0 mph 53 % 0.00 in 600 W/m2
13:03 60.4 °F 43.2 °F 30.44 in WNW 9.0 mph -999.0 mph 53 % 0.00 in 600 W/m2
13:08 60.5 °F 43.3 °F 30.43 in WNW 7.0 mph -999.0 mph 53 % 0.00 in 573 W/m2
13:13 60.5 °F 43.3 °F 30.43 in WNW 7.0 mph -999.0 mph 53 % 0.00 in 573 W/m2
13:18 60.5 °F 43.3 °F 30.43 in WNW 7.0 mph -999.0 mph 53 % 0.00 in 573 W/m2
13:23 60.9 °F 43.6 °F 30.43 in NW 7.0 mph -999.0 mph 53 % 0.00 in 556 W/m2
13:28 60.9 °F 43.6 °F 30.43 in NW 7.0 mph -999.0 mph 53 % 0.00 in 556 W/m2
13:33 60.9 °F 43.6 °F 30.43 in NW 7.0 mph -999.0 mph 53 % 0.00 in 556 W/m2
13:38 61.0 °F 43.2 °F 30.42 in NW 7.0 mph -999.0 mph 52 % 0.00 in 529 W/m2
13:43 61.0 °F 43.2 °F 30.42 in NW 7.0 mph -999.0 mph 52 % 0.00 in 529 W/m2
13:48 61.0 °F 43.2 °F 30.42 in NW 7.0 mph -999.0 mph 52 % 0.00 in 529 W/m2
13:53 61.3 °F 44.0 °F 30.42 in NW 8.0 mph -999.0 mph 53 % 0.00 in 505 W/m2
13:58 61.3 °F 44.0 °F 30.42 in NW 8.0 mph -999.0 mph 53 % 0.00 in 505 W/m2
14:03 61.3 °F 44.0 °F 30.42 in NW 8.0 mph -999.0 mph 53 % 0.00 in 505 W/m2
14:08 61.7 °F 43.9 °F 30.42 in WNW 9.0 mph -999.0 mph 52 % 0.00 in 491 W/m2
14:13 61.7 °F 43.9 °F 30.42 in WNW 9.0 mph -999.0 mph 52 % 0.00 in 491 W/m2
14:18 61.7 °F 43.9 °F 30.42 in WNW 9.0 mph -999.0 mph 52 % 0.00 in 491 W/m2
14:23 61.5 °F 45.2 °F 30.41 in WNW 9.0 mph -999.0 mph 55 % 0.00 in 458 W/m2
14:28 61.5 °F 45.2 °F 30.41 in WNW 9.0 mph -999.0 mph 55 % 0.00 in 458 W/m2
14:33 61.5 °F 45.2 °F 30.41 in WNW 9.0 mph -999.0 mph 55 % 0.00 in 458 W/m2
14:38 61.4 °F 44.6 °F 30.41 in WNW 10.0 mph -999.0 mph 54 % 0.00 in 445 W/m2
14:43 61.4 °F 44.6 °F 30.41 in WNW 10.0 mph -999.0 mph 54 % 0.00 in 445 W/m2
14:48 61.4 °F 44.6 °F 30.41 in WNW 10.0 mph -999.0 mph 54 % 0.00 in 445 W/m2
14:53 61.2 °F 44.4 °F 30.41 in West 9.0 mph -999.0 mph 54 % 0.00 in 437 W/m2
14:58 61.2 °F 44.4 °F 30.41 in West 9.0 mph -999.0 mph 54 % 0.00 in 437 W/m2
15:03 61.2 °F 44.4 °F 30.41 in West 9.0 mph -999.0 mph 54 % 0.00 in 437 W/m2
15:08 61.1 °F 44.8 °F 30.41 in West 9.0 mph -999.0 mph 55 % 0.00 in 402 W/m2
15:13 61.1 °F 44.8 °F 30.41 in West 9.0 mph -999.0 mph 55 % 0.00 in 402 W/m2
15:18 61.1 °F 44.8 °F 30.41 in West 9.0 mph -999.0 mph 55 % 0.00 in 402 W/m2
15:23 61.5 °F 44.7 °F 30.40 in West 10.0 mph -999.0 mph 54 % 0.00 in 371 W/m2
15:28 61.5 °F 44.7 °F 30.40 in West 10.0 mph -999.0 mph 54 % 0.00 in 371 W/m2
15:33 61.5 °F 44.7 °F 30.40 in West 10.0 mph -999.0 mph 54 % 0.00 in 371 W/m2
15:38 61.7 °F 44.9 °F 30.39 in WSW 7.0 mph -999.0 mph 54 % 0.00 in 317 W/m2
15:43 61.7 °F 44.9 °F 30.39 in WSW 7.0 mph -999.0 mph 54 % 0.00 in 317 W/m2
15:48 61.7 °F 44.9 °F 30.39 in WSW 7.0 mph -999.0 mph 54 % 0.00 in 317 W/m2
15:53 61.5 °F 45.2 °F 30.39 in West 8.0 mph -999.0 mph 55 % 0.00 in 283 W/m2
15:58 61.5 °F 45.2 °F 30.39 in West 8.0 mph -999.0 mph 55 % 0.00 in 283 W/m2
16:03 61.5 °F 45.2 °F 30.39 in West 8.0 mph -999.0 mph 55 % 0.00 in 283 W/m2
16:08 60.9 °F 45.6 °F 30.39 in West 7.0 mph -999.0 mph 57 % 0.00 in 242 W/m2
16:13 60.9 °F 45.6 °F 30.39 in West 7.0 mph -999.0 mph 57 % 0.00 in 242 W/m2
16:18 60.9 °F 45.6 °F 30.39 in West 7.0 mph -999.0 mph 57 % 0.00 in 242 W/m2
16:23 60.8 °F 45.5 °F 30.39 in West 8.0 mph -999.0 mph 57 % 0.00 in 198 W/m2
16:28 60.8 °F 45.5 °F 30.39 in West 8.0 mph -999.0 mph 57 % 0.00 in 198 W/m2
16:33 60.8 °F 45.5 °F 30.39 in West 8.0 mph -999.0 mph 57 % 0.00 in 198 W/m2
16:38 60.2 °F 45.8 °F 30.38 in WSW 6.0 mph -999.0 mph 59 % 0.00 in 162 W/m2
16:43 60.2 °F 45.8 °F 30.38 in WSW 6.0 mph -999.0 mph 59 % 0.00 in 162 W/m2
16:48 60.2 °F 45.8 °F 30.38 in WSW 6.0 mph -999.0 mph 59 % 0.00 in 162 W/m2
16:53 59.6 °F 46.1 °F 30.38 in WSW 6.0 mph -999.0 mph 61 % 0.00 in 118 W/m2
16:58 59.6 °F 46.1 °F 30.38 in WSW 6.0 mph -999.0 mph 61 % 0.00 in 118 W/m2
17:03 59.6 °F 46.1 °F 30.38 in WSW 6.0 mph -999.0 mph 61 % 0.00 in 118 W/m2
17:08 59.1 °F 46.1 °F 30.38 in West 5.0 mph -999.0 mph 62 % 0.00 in 81 W/m2
17:13 59.1 °F 46.1 °F 30.38 in West 5.0 mph -999.0 mph 62 % 0.00 in 81 W/m2
17:18 59.1 °F 46.1 °F 30.38 in West 5.0 mph -999.0 mph 62 % 0.00 in 81 W/m2
17:23 58.6 °F 46.0 °F 30.38 in West 3.0 mph -999.0 mph 63 % 0.00 in 58 W/m2
17:28 58.6 °F 46.0 °F 30.38 in West 3.0 mph -999.0 mph 63 % 0.00 in 58 W/m2
17:33 58.6 °F 46.0 °F 30.38 in West 3.0 mph -999.0 mph 63 % 0.00 in 58 W/m2
17:38 58.0 °F 45.9 °F 30.38 in WSW 4.0 mph -999.0 mph 64 % 0.00 in 33 W/m2
17:43 58.0 °F 45.9 °F 30.38 in WSW 4.0 mph -999.0 mph 64 % 0.00 in 33 W/m2
17:45 58.0 °F 45.9 °F 30.38 in WSW 8.0 mph 8.0 mph 64 % 0.00 in 33 W/m2
17:48 58.0 °F 45.9 °F 30.38 in WSW 4.0 mph -999.0 mph 64 % 0.00 in 33 W/m2
17:53 57.4 °F 45.7 °F 30.38 in WSW 1.0 mph -999.0 mph 65 % 0.00 in 18 W/m2
17:58 57.4 °F 45.7 °F 30.38 in WSW 1.0 mph -999.0 mph 65 % 0.00 in 18 W/m2
18:03 57.0 °F 45.8 °F 30.38 in Calm     66 % 0.00 in 12 W/m2
18:30 55.9 °F 45.5 °F 30.38 in WSW 2.0 mph 2.0 mph 68 % 0.00 in 0 W/m2
18:40 54.7 °F 44.7 °F 30.38 in Calm     69 % 0.00 in 0 W/m2
18:51 54.0 °F 44.8 °F 30.38 in Calm     71 % 0.00 in 0 W/m2
18:56 53.2 °F 44.4 °F 30.38 in Calm     72 % 0.00 in 0 W/m2
19:01 52.9 °F 44.5 °F 30.37 in Calm   2.0 mph 73 % 0.00 in 0 W/m2
19:06 52.7 °F 44.6 °F 30.37 in Calm   2.0 mph 74 % 0.00 in 0 W/m2
19:12 52.5 °F 44.5 °F 30.37 in Calm   2.0 mph 74 % 0.00 in 0 W/m2
19:17 52.3 °F 44.3 °F 30.37 in Calm   1.0 mph 74 % 0.00 in 0 W/m2
19:22 52.0 °F 43.9 °F 30.37 in Calm     74 % 0.00 in 0 W/m2
19:27 51.6 °F 44.0 °F 30.37 in Calm   2.0 mph 75 % 0.00 in 0 W/m2
19:32 51.4 °F 43.8 °F 30.37 in Calm   2.0 mph 75 % 0.00 in 0 W/m2
19:37 51.4 °F 44.5 °F 30.36 in Calm   2.0 mph 77 % 0.00 in 0 W/m2
19:42 51.3 °F 44.3 °F 30.37 in Calm   2.0 mph 77 % 0.00 in 0 W/m2
19:47 51.1 °F 44.1 °F 30.37 in Calm   1.0 mph 77 % 0.00 in 0 W/m2
19:52 50.7 °F 43.8 °F 30.37 in Calm   2.0 mph 77 % 0.00 in 0 W/m2
19:57 50.4 °F 43.8 °F 30.36 in Calm   2.0 mph 78 % 0.00 in 0 W/m2
20:02 49.8 °F 43.2 °F 30.36 in Calm   2.0 mph 78 % 0.00 in 0 W/m2
20:07 49.6 °F 43.4 °F 30.36 in WSW 1.0 mph 4.0 mph 79 % 0.00 in 0 W/m2
20:12 49.5 °F 43.5 °F 30.36 in WSW 1.0 mph 4.0 mph 80 % 0.00 in 0 W/m2
20:17 49.3 °F 43.4 °F 30.36 in Calm   2.0 mph 80 % 0.00 in 0 W/m2
20:22 49.1 °F 43.2 °F 30.36 in Calm   2.0 mph 80 % 0.00 in 0 W/m2
20:27 48.9 °F 43.3 °F 30.35 in Calm     81 % 0.00 in 0 W/m2
20:37 48.6 °F 43.3 °F 30.35 in Calm     82 % 0.00 in 0 W/m2
20:42 48.4 °F 43.1 °F 30.35 in Calm     82 % 0.00 in 0 W/m2
20:47 48.0 °F 42.8 °F 30.35 in Calm   1.0 mph 82 % 0.00 in 0 W/m2
20:52 47.8 °F 42.9 °F 30.34 in Calm   2.0 mph 83 % 0.00 in 0 W/m2
20:57 47.8 °F 43.2 °F 30.34 in WSW 1.0 mph 6.0 mph 84 % 0.00 in 0 W/m2
21:02 47.8 °F 43.2 °F 30.35 in WSW 1.0 mph 6.0 mph 84 % 0.00 in 0 W/m2
21:07 48.0 °F 43.4 °F 30.35 in Calm   2.0 mph 84 % 0.00 in 0 W/m2
21:12 48.0 °F 43.4 °F 30.35 in Calm   3.0 mph 84 % 0.00 in 0 W/m2
21:17 48.4 °F 43.8 °F 30.34 in Calm   5.0 mph 84 % 0.00 in 0 W/m2
21:22 48.4 °F 43.8 °F 30.34 in Calm   5.0 mph 84 % 0.00 in 0 W/m2
21:27 48.4 °F 43.5 °F 30.34 in SW 1.0 mph 4.0 mph 83 % 0.00 in 0 W/m2
21:32 48.4 °F 43.5 °F 30.34 in WSW 2.0 mph 6.0 mph 83 % 0.00 in 0 W/m2
21:37 48.4 °F 43.5 °F 30.34 in WSW 3.0 mph 6.0 mph 83 % 0.00 in 0 W/m2
21:42 48.4 °F 43.8 °F 30.34 in West 4.0 mph 8.0 mph 84 % 0.00 in 0 W/m2
21:47 48.6 °F 43.9 °F 30.34 in West 5.0 mph 8.0 mph 84 % 0.00 in 0 W/m2
21:52 48.7 °F 44.1 °F 30.34 in West 6.0 mph 8.0 mph 84 % 0.00 in 0 W/m2
21:57 49.1 °F 44.5 °F 30.33 in WSW 6.0 mph 8.0 mph 84 % 0.00 in 0 W/m2
22:02 49.5 °F 44.5 °F 30.33 in WSW 5.0 mph 9.0 mph 83 % 0.00 in 0 W/m2
22:07 49.6 °F 44.4 °F 30.33 in WSW 5.0 mph 9.0 mph 82 % 0.00 in 0 W/m2
22:12 49.8 °F 44.5 °F 30.33 in WSW 6.0 mph 10.0 mph 82 % 0.00 in 0 W/m2
22:13 50.0 °F 44.7 °F 30.33 in WSW 7.0 mph 10.0 mph 82 % 0.00 in 0 W/m2
22:18 50.4 °F 45.1 °F 30.33 in SW 8.0 mph 13.0 mph 82 % 0.00 in 0 W/m2
22:23 50.7 °F 45.1 °F 30.33 in SW 8.0 mph 13.0 mph 81 % 0.00 in 0 W/m2
22:28 50.9 °F 44.9 °F 30.33 in SW 8.0 mph 13.0 mph 80 % 0.00 in 0 W/m2
22:33 50.9 °F 44.9 °F 30.33 in SW 7.0 mph 11.0 mph 80 % 0.00 in 0 W/m2
22:38 51.1 °F 45.1 °F 30.32 in WSW 6.0 mph 11.0 mph 80 % 0.00 in 0 W/m2
22:43 50.9 °F 44.9 °F 30.32 in WSW 5.0 mph 9.0 mph 80 % 0.00 in 0 W/m2
22:48 50.7 °F 44.8 °F 30.32 in WSW 3.0 mph 9.0 mph 80 % 0.00 in 0 W/m2
22:53 50.5 °F 44.6 °F 30.32 in SSW 2.0 mph 10.0 mph 80 % 0.00 in 0 W/m2
22:58 50.4 °F 44.4 °F 30.32 in South 3.0 mph 10.0 mph 80 % 0.00 in 0 W/m2
23:03 50.2 °F 44.2 °F 30.32 in South 1.0 mph 6.0 mph 80 % 0.00 in 0 W/m2
23:08 49.8 °F 43.9 °F 30.31 in SSW 1.0 mph 5.0 mph 80 % 0.00 in 0 W/m2
23:14 49.6 °F 44.0 °F 30.31 in SW 2.0 mph 7.0 mph 81 % 0.00 in 0 W/m2
23:19 49.5 °F 43.9 °F 30.31 in WSW 4.0 mph 8.0 mph 81 % 0.00 in 0 W/m2
23:24 49.6 °F 44.4 °F 30.31 in WSW 5.0 mph 8.0 mph 82 % 0.00 in 0 W/m2
23:29 50.0 °F 44.4 °F 30.31 in SW 5.0 mph 8.0 mph 81 % 0.00 in 0 W/m2
23:34 50.0 °F 44.4 °F 30.31 in SW 4.0 mph 7.0 mph 81 % 0.00 in 0 W/m2
23:39 50.2 °F 44.2 °F 30.31 in SW 3.0 mph 6.0 mph 80 % 0.00 in 0 W/m2
23:44 50.0 °F 44.1 °F 30.30 in SSW 1.0 mph 5.0 mph 80 % 0.00 in 0 W/m2
23:49 49.8 °F 43.9 °F 30.30 in Calm   4.0 mph 80 % 0.00 in 0 W/m2
23:54 49.5 °F 43.9 °F 30.30 in South 1.0 mph 4.0 mph 81 % 0.00 in 0 W/m2
23:59 49.5 °F 43.9 °F 30.29 in South 1.0 mph 5.0 mph 81 % 0.00 in 0 W/m2
Delerius-Weather
Compliments of Weather Underground - 2.25 mb

Data updates at regular intervals.